This is the latest recevied weather packets stored in our database for station/object K3JSE-4. If no packets are shown the sender has not sent any weather packets the latest 10 day(s).
| Time | Temp. | Humidity | Pressure | Rain* | Wind** | Luminosity | Snow |
|---|---|---|---|---|---|---|---|
| 1777679144 | 13.33° C | 49% | 1012 hPa | 0 mm | - | - | - |
| 1777678843 | 13.33° C | 48% | 1012 hPa | 0 mm | - | - | - |
| 1777678543 | 13.33° C | 47% | 1011.8 hPa | 0 mm | - | - | - |
| 1777678243 | 13.33° C | 47% | 1011.9 hPa | 0 mm | - | - | - |
| 1777677943 | 13.89° C | 47% | 1011.7 hPa | 0 mm | - | - | - |
| 1777677643 | 13.89° C | 48% | 1011.7 hPa | 0 mm | - | - | - |
| 1777677343 | 13.89° C | 46% | 1011.6 hPa | 0 mm | - | - | - |
| 1777677043 | 14.44° C | 48% | 1011.6 hPa | 0 mm | - | - | - |
| 1777676743 | 14.44° C | 47% | 1011.5 hPa | 0 mm | - | - | - |
| 1777676443 | 14.44° C | 46% | 1011.4 hPa | 0 mm | - | - | - |
| 1777676143 | 14.44° C | 46% | 1011.4 hPa | 0 mm | - | - | - |
| 1777675843 | 15° C | 45% | 1011.6 hPa | 0 mm | - | - | - |
| 1777675543 | 15° C | 46% | 1011.5 hPa | 0 mm | - | - | - |
| 1777675243 | 15° C | 46% | 1011.4 hPa | 0 mm | - | - | - |
| 1777674943 | 15° C | 47% | 1011.5 hPa | 0 mm | - | - | - |
| 1777674644 | 15° C | 46% | 1011.4 hPa | 0 mm | - | - | - |
| 1777674350 | 15° C | 46% | 1011.5 hPa | 0 mm | - | - | - |
| 1777674044 | 15° C | 45% | 1011.6 hPa | 0 mm | - | - | - |
| 1777673743 | 15.56° C | 44% | 1011.7 hPa | 0 mm | - | - | - |
| 1777673443 | 15.56° C | 47% | 1011.8 hPa | 0 mm | - | - | - |
| 1777673143 | 15.56° C | 44% | 1011.8 hPa | 0 mm | - | - | - |
| 1777672843 | 15.56° C | 44% | 1011.8 hPa | 0 mm | - | - | - |
| 1777672543 | 16.11° C | 45% | 1011.9 hPa | 0 mm | - | - | - |
| 1777672243 | 16.11° C | 43% | 1011.9 hPa | 0 mm | - | - | - |
| 1777671943 | 16.67° C | 42% | 1011.9 hPa | 0 mm | - | - | - |
* Rain latest hour (hover to see other rain measurements)
** Current wind speed in m/s (hover to see current wind gust speed)